Time,TemperatureF,DewpointF,PressureIn,WindDirection,WindDirectionDegrees,WindSpeedMPH,WindSpeedGustMPH,Humidity,HourlyPrecipIn,Conditions,Clouds,dailyrainin,SoftwareType,DateUTC
2013-01-17 00:02:00,29.0,-53.0,30.08,South,190,0.0,3.0,0,-99.99,,,-99.99,,2013-01-17 06:02:00,
2013-01-17 00:12:00,29.0,-53.0,30.08,SSW,195,0.0,2.0,0,-99.99,,,-99.99,,2013-01-17 06:12:00,
2013-01-17 00:22:00,29.0,-53.0,30.08,SSW,195,0.0,2.0,0,-99.99,,,-99.99,,2013-01-17 06:22:00,
2013-01-17 00:32:00,31.0,-52.0,30.08,West,270,1.0,3.0,0,-99.99,,,-99.99,,2013-01-17 06:32:00,
2013-01-17 00:42:00,31.0,-52.0,30.08,West,280,1.0,2.0,0,-99.99,,,-99.99,,2013-01-17 06:42:00,
2013-01-17 00:52:00,31.0,-52.0,30.08,West,280,1.0,2.0,0,-99.99,,,-99.99,,2013-01-17 06:52:00,
2013-01-17 01:02:00,31.0,-51.0,30.09,WNW,285,1.0,3.0,0,-99.99,,,-99.99,,2013-01-17 07:02:00,
2013-01-17 01:12:00,32.0,-51.0,30.10,West,265,1.0,3.0,0,-99.99,,,-99.99,,2013-01-17 07:12:00,
2013-01-17 01:22:00,32.0,-51.0,30.10,West,265,1.0,3.0,0,-99.99,,,-99.99,,2013-01-17 07:22:00,
2013-01-17 01:32:00,34.0,-49.0,30.10,NW,310,3.0,5.0,0,-99.99,,,-99.99,,2013-01-17 07:32:00,
2013-01-17 01:42:00,35.0,-49.0,30.11,NW,315,2.0,4.0,0,-99.99,,,-99.99,,2013-01-17 07:42:00,
2013-01-17 01:52:00,35.0,-49.0,30.11,NW,315,2.0,4.0,0,-99.99,,,-99.99,,2013-01-17 07:52:00,
2013-01-17 02:02:00,35.0,-49.0,30.11,WNW,285,2.0,4.0,0,-99.99,,,-99.99,,2013-01-17 08:02:00,
2013-01-17 02:12:00,35.0,-49.0,30.11,NW,315,3.0,4.0,0,-99.99,,,-99.99,,2013-01-17 08:12:00,
2013-01-17 02:22:00,35.0,-49.0,30.11,NW,315,3.0,4.0,0,-99.99,,,-99.99,,2013-01-17 08:22:00,
2013-01-17 02:32:00,35.0,-49.0,30.12,West,275,3.0,5.0,0,-99.99,,,-99.99,,2013-01-17 08:32:00,
2013-01-17 02:43:00,36.0,-25.0,30.12,WNW,300,2.0,5.0,6,-99.99,,,-99.99,,2013-01-17 08:43:00,
2013-01-17 02:52:00,36.0,-25.0,30.12,WNW,300,2.0,5.0,6,-99.99,,,-99.99,,2013-01-17 08:52:00,
2013-01-17 03:02:00,36.0,-48.0,30.12,NNW,330,2.0,3.0,0,-99.99,,,-99.99,,2013-01-17 09:02:00,
2013-01-17 03:12:00,36.0,-49.0,30.12,West,280,3.0,4.0,0,-99.99,,,-99.99,,2013-01-17 09:12:00,
2013-01-17 03:22:00,36.0,-49.0,30.12,West,280,3.0,4.0,0,-99.99,,,-99.99,,2013-01-17 09:22:00,
2013-01-17 03:32:00,36.0,-48.0,30.12,NW,325,1.0,4.0,0,-99.99,,,-99.99,,2013-01-17 09:32:00,
2013-01-17 03:42:00,36.0,-48.0,30.13,NNE,15,2.0,3.0,0,-99.99,,,-99.99,,2013-01-17 09:42:00,
2013-01-17 03:52:00,36.0,-48.0,30.13,NNE,15,2.0,3.0,0,-99.99,,,-99.99,,2013-01-17 09:52:00,
2013-01-17 04:02:00,36.0,-48.0,30.13,NW,315,3.0,6.0,0,-99.99,,,-99.99,,2013-01-17 10:02:00,
2013-01-17 04:12:00,36.0,-49.0,30.13,NW,305,4.0,8.0,0,-99.99,,,-99.99,,2013-01-17 10:12:00,
2013-01-17 04:22:00,36.0,-49.0,30.13,NW,305,4.0,8.0,0,-99.99,,,-99.99,,2013-01-17 10:22:00,
2013-01-17 04:32:00,36.0,-48.0,30.14,NNE,25,4.0,7.0,0,-99.99,,,-99.99,,2013-01-17 10:32:00,
2013-01-17 04:42:00,36.0,-49.0,30.14,NNW,340,3.0,7.0,0,-99.99,,,-99.99,,2013-01-17 10:42:00,
2013-01-17 04:52:00,36.0,-49.0,30.14,NNW,340,3.0,7.0,0,-99.99,,,-99.99,,2013-01-17 10:52:00,
2013-01-17 05:02:00,36.0,-48.0,30.15,North,0,4.0,10.0,0,-99.99,,,-99.99,,2013-01-17 11:02:00,
2013-01-17 05:12:00,36.0,-48.0,30.15,North,0,4.0,9.0,0,-99.99,,,-99.99,,2013-01-17 11:12:00,
2013-01-17 05:22:00,36.0,-48.0,30.15,North,0,4.0,9.0,0,-99.99,,,-99.99,,2013-01-17 11:22:00,
2013-01-17 05:33:00,36.0,-48.0,30.16,NNW,340,4.0,10.0,0,-99.99,,,-99.99,,2013-01-17 11:33:00,
2013-01-17 05:42:00,36.0,-48.0,30.16,North,5,4.0,6.0,0,-99.99,,,-99.99,,2013-01-17 11:42:00,
2013-01-17 05:52:00,36.0,-48.0,30.16,North,5,4.0,6.0,0,-99.99,,,-99.99,,2013-01-17 11:52:00,
2013-01-17 06:00:00,35.0,-49.0,30.18,North,355,5.0,8.0,0,-99.99,,,-99.99,,2013-01-17 12:00:00,
2013-01-17 06:02:00,36.0,-48.0,30.16,North,0,5.0,9.0,0,-99.99,,,-99.99,,2013-01-17 12:02:00,
2013-01-17 06:12:00,36.0,-49.0,30.17,North,0,5.0,8.0,0,-99.99,,,-99.99,,2013-01-17 12:12:00,
2013-01-17 06:23:00,36.0,-49.0,30.17,North,0,5.0,8.0,0,-99.99,,,-99.99,,2013-01-17 12:23:00,
2013-01-17 06:33:00,35.0,-49.0,30.17,North,350,3.0,8.0,0,-99.99,,,-99.99,,2013-01-17 12:33:00,
2013-01-17 06:43:00,35.0,-49.0,30.18,North,355,5.0,8.0,0,-99.99,,,-99.99,,2013-01-17 12:43:00,
2013-01-17 06:52:00,35.0,-49.0,30.18,North,355,5.0,8.0,0,-99.99,,,-99.99,,2013-01-17 12:52:00,
2013-01-17 07:12:00,35.0,-49.0,30.19,North,0,5.0,8.0,0,-99.99,,,-99.99,,2013-01-17 13:12:00,
2013-01-17 07:23:00,35.0,-49.0,30.19,North,0,5.0,8.0,0,-99.99,,,-99.99,,2013-01-17 13:23:00,
2013-01-17 07:33:00,35.0,-49.0,30.20,NNE,15,7.0,11.0,0,-99.99,,,-99.99,,2013-01-17 13:33:00,
2013-01-17 07:43:00,35.0,-49.0,30.21,NNE,15,7.0,10.0,0,-99.99,,,-99.99,,2013-01-17 13:43:00,
2013-01-17 07:52:00,35.0,-49.0,30.21,NNE,15,7.0,10.0,0,-99.99,,,-99.99,,2013-01-17 13:52:00,
2013-01-17 08:03:00,35.0,-49.0,30.22,NE,35,8.0,12.0,0,-99.99,,,-99.99,,2013-01-17 14:03:00,
2013-01-17 08:13:00,35.0,-99.9,30.23,NNE,20,9.0,14.0,-999,-99.99,,,-99.99,,2013-01-17 14:13:00,
2013-01-17 08:23:00,35.0,-99.9,30.23,NNE,20,9.0,14.0,-999,-99.99,,,-99.99,,2013-01-17 14:23:00,
2013-01-17 08:33:00,35.0,-99.9,30.24,NE,40,5.0,12.0,-999,-99.99,,,-99.99,,2013-01-17 14:33:00,
2013-01-17 08:43:00,36.0,-99.9,30.25,NE,35,8.0,14.0,-999,-99.99,,,-99.99,,2013-01-17 14:43:00,
2013-01-17 08:53:00,36.0,-99.9,30.25,NE,35,8.0,14.0,-999,-99.99,,,-99.99,,2013-01-17 14:53:00,
2013-01-17 09:03:00,36.0,-99.9,30.26,NNE,15,9.0,13.0,-999,-99.99,,,-99.99,,2013-01-17 15:03:00,
2013-01-17 09:13:00,36.0,-99.9,30.27,NNE,15,7.0,14.0,-999,-99.99,,,-99.99,,2013-01-17 15:13:00,
2013-01-17 09:23:00,36.0,-99.9,30.27,NNE,15,7.0,14.0,-999,-99.99,,,-99.99,,2013-01-17 15:23:00,
2013-01-17 09:33:00,36.0,-99.9,30.29,NNE,30,10.0,17.0,-999,-99.99,,,-99.99,,2013-01-17 15:33:00,
2013-01-17 09:43:00,36.0,-99.9,30.30,NE,55,13.0,22.0,-999,-99.99,,,-99.99,,2013-01-17 15:43:00,
2013-01-17 09:53:00,36.0,-99.9,30.30,NE,55,13.0,22.0,-999,-99.99,,,-99.99,,2013-01-17 15:53:00,
2013-01-17 10:02:00,36.0,-48.0,30.31,NE,40,12.0,17.0,0,-99.99,,,-99.99,,2013-01-17 16:02:00,
2013-01-17 10:12:00,36.0,-48.0,30.31,NNE,15,9.0,22.0,0,-99.99,,,-99.99,,2013-01-17 16:12:00,
2013-01-17 10:23:00,36.0,-48.0,30.31,NNE,15,9.0,22.0,0,-99.99,,,-99.99,,2013-01-17 16:23:00,
2013-01-17 10:33:00,37.0,-48.0,30.32,North,0,10.0,16.0,0,-99.99,,,-99.99,,2013-01-17 16:33:00,
2013-01-17 10:43:00,36.0,-48.0,30.32,North,10,12.0,17.0,0,-99.99,,,-99.99,,2013-01-17 16:43:00,
2013-01-17 10:53:00,36.0,-48.0,30.32,North,10,12.0,17.0,0,-99.99,,,-99.99,,2013-01-17 16:53:00,
2013-01-17 11:00:00,37.0,-99.9,30.32,NE,40,11.0,19.0,-999,-99.99,,,-99.99,,2013-01-17 17:00:00,
2013-01-17 11:03:00,36.0,-48.0,30.32,NNE,30,11.0,21.0,0,-99.99,,,-99.99,,2013-01-17 17:03:00,
2013-01-17 11:13:00,36.0,-48.0,30.32,North,0,9.0,16.0,0,-99.99,,,-99.99,,2013-01-17 17:13:00,
2013-01-17 11:23:00,36.0,-48.0,30.32,North,0,9.0,16.0,0,-99.99,,,-99.99,,2013-01-17 17:23:00,
2013-01-17 11:33:00,37.0,-99.9,30.32,NNE,15,10.0,21.0,-999,-99.99,,,-99.99,,2013-01-17 17:33:00,
2013-01-17 11:43:00,37.0,-99.9,30.32,NE,40,11.0,19.0,-999,-99.99,,,-99.99,,2013-01-17 17:43:00,
2013-01-17 11:54:00,37.0,-99.9,30.32,NE,40,11.0,19.0,-999,-99.99,,,-99.99,,2013-01-17 17:54:00,
2013-01-17 12:12:00,38.0,-47.0,30.32,North,10,12.0,20.0,0,-99.99,,,-99.99,,2013-01-17 18:12:00,
2013-01-17 12:22:00,38.0,-47.0,30.32,North,10,12.0,20.0,0,-99.99,,,-99.99,,2013-01-17 18:22:00,
2013-01-17 12:34:00,37.0,-99.9,30.33,North,0,13.0,21.0,-999,-99.99,,,-99.99,,2013-01-17 18:34:00,
2013-01-17 12:44:00,38.0,-99.9,30.33,North,10,12.0,19.0,-999,-99.99,,,-99.99,,2013-01-17 18:44:00,
2013-01-17 12:54:00,38.0,-99.9,30.33,North,10,12.0,19.0,-999,-99.99,,,-99.99,,2013-01-17 18:54:00,
2013-01-17 13:04:00,39.0,-99.9,30.32,NE,55,13.0,18.0,-999,-99.99,,,-99.99,,2013-01-17 19:04:00,
2013-01-17 13:13:00,40.0,-99.9,30.31,North,0,8.0,19.0,-999,-99.99,,,-99.99,,2013-01-17 19:13:00,
2013-01-17 13:23:00,40.0,-99.9,30.31,North,0,8.0,19.0,-999,-99.99,,,-99.99,,2013-01-17 19:23:00,
2013-01-17 13:33:00,41.0,-99.9,30.30,NNE,30,7.0,15.0,-999,-99.99,,,-99.99,,2013-01-17 19:33:00,
2013-01-17 13:43:00,40.0,-99.9,30.30,NNE,25,9.0,15.0,-999,-99.99,,,-99.99,,2013-01-17 19:43:00,
2013-01-17 13:54:00,40.0,-99.9,30.30,NNE,25,9.0,15.0,-999,-99.99,,,-99.99,,2013-01-17 19:54:00,
2013-01-17 14:03:00,41.0,-41.0,30.31,NE,55,6.0,20.0,2,-99.99,,,-99.99,,2013-01-17 20:03:00,
2013-01-17 14:12:00,41.0,10.0,30.31,NNE,30,14.0,23.0,28,-99.99,,,-99.99,,2013-01-17 20:12:00,
2013-01-17 14:23:00,41.0,10.0,30.31,NNE,30,14.0,23.0,28,-99.99,,,-99.99,,2013-01-17 20:23:00,
2013-01-17 14:33:00,41.0,-18.0,30.30,NNE,15,11.0,19.0,7,-99.99,,,-99.99,,2013-01-17 20:33:00,
2013-01-17 14:43:00,42.0,-41.0,30.31,North,0,12.0,18.0,2,-99.99,,,-99.99,,2013-01-17 20:43:00,
2013-01-17 14:53:00,42.0,-41.0,30.31,North,0,12.0,18.0,2,-99.99,,,-99.99,,2013-01-17 20:53:00,
2013-01-17 15:03:00,42.0,-45.0,30.31,North,0,9.0,19.0,0,-99.99,,,-99.99,,2013-01-17 21:03:00,
2013-01-17 15:13:00,42.0,-45.0,30.32,NNE,25,9.0,18.0,0,-99.99,,,-99.99,,2013-01-17 21:13:00,
2013-01-17 15:23:00,42.0,-45.0,30.32,NNE,25,9.0,18.0,0,-99.99,,,-99.99,,2013-01-17 21:23:00,
2013-01-17 15:33:00,42.0,-45.0,30.32,North,0,9.0,19.0,0,-99.99,,,-99.99,,2013-01-17 21:33:00,
2013-01-17 15:43:00,42.0,-45.0,30.32,North,0,9.0,17.0,0,-99.99,,,-99.99,,2013-01-17 21:43:00,
2013-01-17 15:52:00,42.0,-45.0,30.32,North,0,9.0,17.0,0,-99.99,,,-99.99,,2013-01-17 21:52:00,
2013-01-17 16:00:00,41.0,-45.0,30.35,NNE,25,12.0,17.0,0,-99.99,,,-99.99,,2013-01-17 22:00:00,
2013-01-17 16:03:00,42.0,-45.0,30.33,North,0,10.0,20.0,0,-99.99,,,-99.99,,2013-01-17 22:03:00,
2013-01-17 16:12:00,42.0,-45.0,30.34,North,5,7.0,17.0,0,-99.99,,,-99.99,,2013-01-17 22:12:00,
2013-01-17 16:23:00,42.0,-45.0,30.34,North,5,7.0,17.0,0,-99.99,,,-99.99,,2013-01-17 22:23:00,
2013-01-17 16:33:00,41.0,-45.0,30.34,North,0,8.0,15.0,0,-99.99,,,-99.99,,2013-01-17 22:33:00,
2013-01-17 16:43:00,41.0,-45.0,30.35,NNE,25,12.0,17.0,0,-99.99,,,-99.99,,2013-01-17 22:43:00,
2013-01-17 16:52:00,41.0,-45.0,30.35,NNE,25,12.0,17.0,0,-99.99,,,-99.99,,2013-01-17 22:52:00,
2013-01-17 17:12:00,40.0,-99.9,30.36,North,0,9.0,15.0,-999,-99.99,,,-99.99,,2013-01-17 23:12:00,
2013-01-17 17:23:00,40.0,-99.9,30.36,North,0,9.0,15.0,-999,-99.99,,,-99.99,,2013-01-17 23:23:00,
2013-01-17 17:33:00,40.0,-46.0,30.36,North,0,7.0,15.0,0,-99.99,,,-99.99,,2013-01-17 23:33:00,
2013-01-17 17:43:00,39.0,-99.9,30.37,NNE,15,6.0,12.0,-999,-99.99,,,-99.99,,2013-01-17 23:43:00,
2013-01-17 17:53:00,39.0,-99.9,30.37,NNE,15,6.0,12.0,-999,-99.99,,,-99.99,,2013-01-17 23:53:00,
2013-01-17 18:03:00,38.0,-47.0,30.38,North,5,12.0,18.0,0,-99.99,,,-99.99,,2013-01-18 00:03:00,
2013-01-17 18:13:00,38.0,-99.9,30.38,North,0,9.0,14.0,-999,-99.99,,,-99.99,,2013-01-18 00:13:00,
2013-01-17 18:23:00,38.0,-99.9,30.38,North,0,9.0,14.0,-999,-99.99,,,-99.99,,2013-01-18 00:23:00,
2013-01-17 18:33:00,37.0,-99.9,30.39,North,0,7.0,12.0,-999,-99.99,,,-99.99,,2013-01-18 00:33:00,
2013-01-17 18:42:00,37.0,-48.0,30.40,NNE,20,6.0,15.0,0,-99.99,,,-99.99,,2013-01-18 00:42:00,
2013-01-17 18:52:00,37.0,-48.0,30.40,NNE,20,6.0,15.0,0,-99.99,,,-99.99,,2013-01-18 00:52:00,
2013-01-17 19:03:00,36.0,-48.0,30.40,NNE,15,5.0,9.0,0,-99.99,,,-99.99,,2013-01-18 01:03:00,
2013-01-17 19:12:00,36.0,2.0,30.40,North,10,5.0,9.0,23,-99.99,,,-99.99,,2013-01-18 01:12:00,
2013-01-17 19:23:00,36.0,2.0,30.40,North,10,5.0,9.0,23,-99.99,,,-99.99,,2013-01-18 01:23:00,
2013-01-17 19:33:00,36.0,14.0,30.41,NNE,15,3.0,7.0,40,-99.99,,,-99.99,,2013-01-18 01:33:00,
2013-01-17 19:43:00,36.0,-4.0,30.42,North,5,3.0,8.0,18,-99.99,,,-99.99,,2013-01-18 01:43:00,
2013-01-17 19:52:00,36.0,-4.0,30.42,North,5,3.0,8.0,18,-99.99,,,-99.99,,2013-01-18 01:52:00,
2013-01-17 20:03:00,35.0,-49.0,30.42,North,0,2.0,4.0,0,-99.99,,,-99.99,,2013-01-18 02:03:00,
2013-01-17 20:12:00,35.0,-49.0,30.43,North,5,2.0,4.0,0,-99.99,,,-99.99,,2013-01-18 02:12:00,
2013-01-17 20:22:00,35.0,-49.0,30.43,North,5,2.0,4.0,0,-99.99,,,-99.99,,2013-01-18 02:22:00,
2013-01-17 20:42:00,34.0,-49.0,30.43,NNW,335,2.0,4.0,0,-99.99,,,-99.99,,2013-01-18 02:42:00,
2013-01-17 20:52:00,34.0,-49.0,30.43,NNW,335,2.0,4.0,0,-99.99,,,-99.99,,2013-01-18 02:52:00,
2013-01-17 21:03:00,34.0,-99.9,30.43,NNW,330,2.0,3.0,-999,-99.99,,,-99.99,,2013-01-18 03:03:00,
2013-01-17 21:13:00,33.0,-99.9,30.43,NW,320,2.0,4.0,-999,-99.99,,,-99.99,,2013-01-18 03:13:00,
2013-01-17 21:23:00,33.0,-99.9,30.43,NW,320,2.0,4.0,-999,-99.99,,,-99.99,,2013-01-18 03:23:00,
2013-01-17 21:33:00,33.0,-28.0,30.43,NNW,330,2.0,4.0,6,-99.99,,,-99.99,,2013-01-18 03:33:00,
2013-01-17 21:42:00,33.0,-51.0,30.44,NW,320,2.0,3.0,0,-99.99,,,-99.99,,2013-01-18 03:42:00,
2013-01-17 21:52:00,33.0,-51.0,30.44,NW,320,2.0,3.0,0,-99.99,,,-99.99,,2013-01-18 03:52:00,
2013-01-17 22:02:00,30.0,-27.0,30.44,WSW,250,1.0,4.0,7,-99.99,,,-99.99,,2013-01-18 04:02:00,
2013-01-17 22:12:00,29.0,-33.0,30.44,WNW,300,0.0,2.0,5,-99.99,,,-99.99,,2013-01-18 04:12:00,
2013-01-17 22:22:00,29.0,-33.0,30.44,WNW,300,0.0,2.0,5,-99.99,,,-99.99,,2013-01-18 04:22:00,
2013-01-17 22:33:00,31.0,-52.0,30.45,NNE,30,0.0,3.0,0,-99.99,,,-99.99,,2013-01-18 04:33:00,
2013-01-17 22:42:00,29.0,-49.0,30.45,West,260,0.0,3.0,2,-99.99,,,-99.99,,2013-01-18 04:42:00,
2013-01-17 22:52:00,29.0,-53.0,30.44,SSW,210,0.0,2.0,0,-99.99,,,-99.99,,2013-01-18 04:52:00,
2013-01-17 23:03:00,29.0,-53.0,30.44,SSW,210,0.0,2.0,0,-99.99,,,-99.99,,2013-01-18 05:03:00,
2013-01-17 23:12:00,29.0,-38.0,30.44,West,280,0.0,1.0,4,-99.99,,,-99.99,,2013-01-18 05:12:00,
2013-01-17 23:22:00,29.0,-38.0,30.44,West,280,0.0,1.0,4,-99.99,,,-99.99,,2013-01-18 05:22:00,
2013-01-17 23:33:00,28.0,-53.0,30.44,SSE,165,0.0,1.0,0,-99.99,,,-99.99,,2013-01-18 05:33:00,
2013-01-17 23:42:00,28.0,-54.0,30.44,SW,230,0.0,4.0,0,-99.99,,,-99.99,,2013-01-18 05:42:00,
2013-01-17 23:52:00,28.0,-54.0,30.44,SW,230,0.0,4.0,0,-99.99,,,-99.99,,2013-01-18 05:52:00,